Weather History for PAVA - December, 2012

Change the Weather History Date:

Wednesday, December 5, 2012

  Actual Average Record
Temperature  
Mean Temperature 0 °F -  
Max Temperature 3 °F - - ()
Min Temperature -2 °F - - ()
Degree Days  
Heating Degree Days 64    
Moisture  
Dew Point -3 °F    
Average Humidity 84    
Maximum Humidity 92    
Minimum Humidity 76    
Precipitation  
Precipitation 0.00 in - - ()
Sea Level Pressure  
Sea Level Pressure 30.06 in    
Wind  
Wind Speed 15 mph (NNE)    
Max Wind Speed 33 mph    
Max Gust Speed 25 mph    
T = Trace of Precipitation, MM = Missing Value Source: NWS Daily Summary

Daily Weather History Graph

Daily Weather History Graph

Search for Another Location

Airport or City:

Trip Planner

Search our weather history database for the weather conditions in past years. The results will help you decide how hot, cold, wet, or windy it might be!

Date:

Astronomy

Dec. 05, 2012 Rise Set
Actual Time 11:01 AM AKST 4:45 PM AKST
Civil Twilight 10:00 AM AKST 5:46 PM AKST
Nautical Twilight 9:01 AM AKST 6:45 PM AKST
Astronomical Twilight 8:07 AM AKST 7:38 PM AKST
Moon 12:07 AM AKST (12/5) 1:57 PM AKST (12/5)
Length of Visible Light 7h 45m
Length of Day
5h 44m
Waning Gibbous, 58% of the Moon is Illuminated
Dec 5
Waning Gibbous
Dec 6
Last Quarter
Dec 12
New
Dec 19
First Quarter
Dec 28
Full

Hourly Weather History & Observations

Time (AKST) Temp. Windchill Dew Point Humidity Pressure Visibility Wind Dir Wind Speed Gust Speed Precip Events Conditions
12:01 AM 1.4 °F -8.3 °F -0.4 °F 92% 30.08 in - ENE 4.6 mph - N/A   Mostly Cloudy
12:11 AM 1.4 °F - -2.2 °F 85% 30.08 in - Calm Calm - N/A   Scattered Clouds
12:57 AM -0.0 °F -20.1 °F -2.0 °F 91% 30.07 in - North 16.1 mph - N/A   Clear
1:57 AM 1.9 °F -23.9 °F -2.9 °F 80% 30.06 in - North 32.2 mph - N/A   Clear
2:57 AM 1.0 °F -19.9 °F -4.0 °F 79% 30.07 in - NNE 18.4 mph - N/A   Clear
3:57 AM 1.0 °F -20.9 °F -4.0 °F 79% 30.06 in - NNE 20.7 mph - N/A   Clear
5:57 AM -0.0 °F -13.0 °F -2.9 °F 88% 30.06 in - NNE 6.9 mph - N/A   Clear
6:57 AM 3.0 °F -14.1 °F -0.0 °F 87% 30.05 in - North 12.7 mph - N/A   Clear
7:57 AM 3.0 °F -17.8 °F -0.0 °F 87% 30.05 in - North 19.6 mph - N/A   Clear
8:57 AM 1.0 °F -17.3 °F -2.9 °F 83% 30.06 in - North 13.8 mph - N/A   Partly Cloudy
9:57 AM -0.0 °F -23.8 °F -2.9 °F 88% 30.05 in - North 24.2 mph - N/A   Clear
10:57 AM -0.0 °F -23.8 °F -2.9 °F 88% 30.04 in - NNE 24.2 mph - N/A   Clear
11:57 AM -0.0 °F -21.3 °F -4.0 °F 83% 30.06 in - North 18.4 mph - N/A   Clear
12:57 PM 1.0 °F -21.9 °F -4.0 °F 79% 30.06 in - North 23.0 mph - N/A   Clear
1:57 PM 3.0 °F -11.5 °F -2.9 °F 76% 30.07 in - NNW 9.2 mph - N/A   Clear
2:22 PM 1.4 °F -21.9 °F -2.2 °F 85% 30.05 in - North 24.2 mph - N/A   Clear
2:57 PM 1.9 °F -16.9 °F -2.9 °F 80% 30.06 in - NNW 15.0 mph 21.9 mph N/A   Clear
3:57 PM 1.9 °F -13.8 °F -4.0 °F 76% 30.07 in - NNW 10.4 mph - N/A   Clear
4:57 PM -0.0 °F -22.4 °F -4.0 °F 83% 30.06 in - North 20.7 mph - N/A   Clear
5:57 PM 1.0 °F -21.4 °F -2.9 °F 83% 30.06 in - NNE 21.9 mph - N/A   Clear
6:57 PM 1.0 °F -20.4 °F -2.9 °F 83% 30.06 in - NNE 19.6 mph 25.3 mph N/A   Clear
7:57 PM -0.0 °F -24.3 °F -4.0 °F 83% 30.06 in - NNE 25.3 mph - N/A   Clear
8:57 PM -2.0 °F -25.5 °F -6.0 °F 83% 30.08 in - NNE 21.9 mph 25.3 mph N/A   Clear
9:57 PM -0.9 °F -26.3 °F -5.1 °F 83% 30.07 in - NNE 27.6 mph - N/A   Clear
10:57 PM -2.0 °F -29.7 °F -5.1 °F 87% 30.06 in - NNE 33.4 mph - N/A   Clear
11:57 PM -2.9 °F -28.1 °F -6.0 °F 87% 30.09 in - NNE 25.3 mph - N/A   Clear